Location: Newark
(40.4667°N, 5.6000°W)
Time: 06:00:17
(UTC+00:00)

Transit 2A Rocket - All Passes

Search period start: 12 November 2019 00:00
Search period end: 22 November 2019 00:00
Orbit: 594 x 909 km, 66.7° (Epoch: 11 November)

Date Brightness Start Highest point End Pass type
(mag) Time Alt. Az. Time Alt. Az. Time Alt. Az.
12 Nov - 00:49:50 10° W 00:53:30 21° NW 00:57:00 10° N night (unlit)
12 Nov - 07:49:44 10° N 07:53:35 30° NE 07:57:32 10° ESE daylight
12 Nov - 09:32:18 10° NW 09:36:00 27° WSW 09:39:50 10° SSW daylight
12 Nov - 22:24:25 10° SSE 22:28:25 25° ESE 22:32:11 10° NE night (unlit)
13 Nov - 00:06:21 10° WSW 00:10:48 36° NW 00:14:59 10° NNE night (unlit)
13 Nov - 07:07:50 10° N 07:10:50 18° NE 07:13:52 10° E daylight
13 Nov - 08:49:22 10° NW 08:53:36 51° WSW 08:58:03 10° S daylight
13 Nov - 21:43:46 10° SE 21:46:07 13° ESE 21:48:23 10° ENE night (unlit)
13 Nov - 23:23:20 10° SW 23:28:12 65° WNW 23:32:42 10° NNE night (unlit)
14 Nov - 06:26:54 10° NNE 06:27:56 11° NE 06:28:59 10° NE visible
14 Nov - 08:06:46 10° NNW 08:11:08 82° ENE 08:15:43 10° SSE daylight
14 Nov - 22:40:48 10° SSW 22:45:41 69° ESE 22:50:12 10° NE night (unlit)
15 Nov - 00:25:49 10° W 00:28:37 15° NW 00:31:20 10° N night (unlit)
15 Nov - 07:24:25 10° NNW 07:28:35 43° ENE 07:32:55 10° SE daylight
15 Nov - 09:07:47 10° WNW 09:10:47 18° WSW 09:13:53 10° SSW daylight
15 Nov - 21:58:45 10° S 22:03:15 37° ESE 22:07:27 10° NE night (unlit)
15 Nov - 23:41:52 10° WSW 23:45:50 25° NW 23:49:35 10° N night (unlit)
16 Nov - 06:42:17 10° N 06:45:55 25° NE 06:49:38 10° ESE visible
16 Nov - 08:24:29 10° NW 08:28:27 33° WSW 08:32:36 10° S daylight
16 Nov - 21:17:21 10° SSE 21:20:53 20° ESE 21:24:15 10° ENE night (unlit)
16 Nov - 22:58:34 10° SW 23:03:10 43° WNW 23:07:28 10° NNE night (unlit)
17 Nov - 06:00:34 10° N 06:03:07 15° NE 06:05:43 10° E visible
17 Nov - 07:41:41 10° NW 07:46:02 65° WSW 07:50:36 10° SSE daylight
17 Nov - 20:37:47 10° ESE 20:38:37 10° ESE 20:39:26 10° E night (unlit)
17 Nov - 22:15:44 10° SSW 22:20:36 80° WNW 22:25:06 10° NNE night (unlit)
18 Nov - 00:02:28 10° WNW 00:03:47 11° NW 00:05:06 10° NNW night (unlit)
18 Nov - 06:59:11 10° NNW 07:03:32 66° ENE 07:08:06 10° SE daylight
18 Nov - 08:43:57 10° W 08:45:32 12° WSW 08:47:09 10° SW daylight
18 Nov - 21:33:21 10° SSW 21:38:07 55° ESE 21:42:32 10° NE night (unlit)
18 Nov - 23:17:41 10° W 23:20:55 18° NW 23:24:01 10° N night (unlit)
19 Nov - 06:16:54 10° NNW 06:20:56 36° NE 06:25:08 10° ESE visible
19 Nov - 07:59:48 10° WNW 08:03:15 22° WSW 08:06:51 10° SSW daylight
19 Nov - 20:51:30 10° S 20:55:42 29° ESE 20:59:39 10° NE night (unlit)
19 Nov - 22:33:59 10° WSW 22:38:10 30° NW 22:42:07 10° N night (unlit)
20 Nov - 05:34:53 10° N 05:38:13 21° NE 05:41:40 10° E visible
20 Nov - 07:16:44 10° NW 07:20:53 42° WSW 07:25:16 10° S daylight
20 Nov - 20:10:26 10° SE 20:13:22 16° ESE 20:16:11 10° ENE night (unlit)
20 Nov - 21:50:51 10° SW 21:55:32 53° WNW 21:59:56 10° NNE night (unlit)
21 Nov - 04:53:24 10° NNE 04:55:23 13° NE 04:57:24 10° ENE visible
21 Nov - 06:34:02 10° NNW 06:38:26 82° WSW 06:43:05 10° SSE visible
21 Nov - 21:08:10 10° SSW 21:13:00 84° ESE 21:17:30 10° NNE night (unlit)
21 Nov - 22:53:53 10° WNW 22:56:03 13° NW 22:58:10 10° NNW night (unlit)
